Regional Weather Roundup
Issued by NWS Newport/Morehead, NC

Home | Current Version | Previous Version | Text Only | Print | Product List | Glossary On
Versions: 1 2 3 4 5 6 7 8 9 10 11 12 13 14 15 16 17 18 19 20 21 22 23 24 25 26 27 28 29 30 31 32 33 34 35 36 37 38 39 40 41 42 43 44 45 46 47 48 49 50
000
ASUS42 KMHX 231022
RWRMHX
WEATHER ROUNDUP FOR EASTERN NORTH CAROLINA
NATIONAL WEATHER SERVICE NEWPORT/MOREHEAD CITY NC
600 AM EDT WED JUL 23 2014

NOTE: "FAIR" INDICATES FEW OR NO CLOUDS BELOW 12,000 FEET
WITH NO SIGNIFICANT WEATHER AND/OR OBSTRUCTIONS TO VISIBILITY

NCZ015>017-031-032-045>047-102-103-231100-
NORTH COAST

CITY           SKY/WX    TMP DP  RH WIND       PRES   REMARKS
EDENTON        CLOUDY    76  74  95 W3        30.04F
ELIZABETH CITY MOCLDY    74  73  97 W5        30.04S
KITTY HAWK     CLOUDY    75  74  97 SW3       30.03S
MANTEO         NOT AVBL

$$

NCZ045>047-081-094-103-104-231100-
CENTRAL COAST

CITY           SKY/WX    TMP DP  RH WIND       PRES   REMARKS
FRISCO         CLEAR     77  74  90 W7        30.06R
SWANQUARTER      N/A     77 N/A N/A W10G16    30.00F

$$

NCZ095-097-098-100-101-231100-
SOUTHERN COAST

CITY           SKY/WX    TMP DP  RH WIND       PRES   REMARKS
BEAUFORT       CLEAR     77  74  90 W5        30.06S
CEDAR ISLAND     N/A     75 N/A N/A S5G12     30.09S
JACKSONVILLE   CLEAR     73  72  96 SW3       30.06S
NEWPORT        NOT AVBL
PINEY ISLAND   SUNNY     76  75  97 SW7       30.06R
WILMINGTON     CLEAR     73  72  96 CALM      30.06S


$$

NCZ011>013-027>030-043-044-078>080-089-090>093-098-231100-
COASTAL PLAIN

CITY           SKY/WX    TMP DP  RH WIND       PRES   REMARKS
AHOSKIE        CLOUDY    70  69  96 CALM      30.05S VSB 1
CLINTON        CLOUDY    74  74 100 SW3       30.06S FOG
ELIZABETHTOWN  PTCLDY    74  74 100 CALM      30.07R
GOLDSBORO      CLOUDY    76  76 100 SW5       30.04S
GREENVILLE     CLOUDY    73  73 100 CALM      30.07S
HAVELOCK       PTCLDY    73  71  93 SW3       30.07S
KENANSVILLE    MOCLDY    74  73  94 CALM      30.07S
KINSTON        CLOUDY    76  75  95 SW6       30.06S
NEW BERN       CLOUDY    75  73  94 SW3       30.07S
RICHLANDS      CLOUDY    73  72  94 SW5       30.06F VSB 1/2
ROANOKE RAPIDS NOT AVBL
ROCKY MOUNT    FOG       72  71  97 CALM      30.05F VSB 1/2
WASHINGTON     CLOUDY    75  74  96 CALM      30.06S
WHITEVILLE     CLEAR     72  71  96 CALM      30.06S

$$

AMZ130-135-150-152-154-156-158-170-250-252-270-ANZ085-086-088-633-658-670-231100-
MARINE OBSERVATIONS

STATION/POSITION TIME  TEMP    WIND        PRES    WAVE   SWELL
                       AIR SEA DIR/SP/G            HT/PER HT/PER
                 (UTC) (F)     (DEG/KT/KT) (MB)    (FT/S) (FT/S)
CHESAPEAKE LIGHT NOT AVBL
BUOY 44014       1000   77 78  230/ 10/ 10 1016.5    3/ 7   2/ 7
DUCK             1000   77 73  260/  9/ 11 1016.2
2E DUCK          1000                        N/A     2/ 7
OREGON INLET     1000   77 79  250/  9/ 13 1017.2
BUOY 44095       1000      77                N/A     3/ 5
20E OREGON INLET NOT AVBL
HATTERAS CG      1000   77 82  230/  5/  8 1018.1
DIAMOND BUOY     1000          VRB 14/ 16  1017.6    3/ 8   2/ 8
CAPE LOOKOUT     1000   78     250/  6/  8 1017.8
BEAUFORT LAB     1000   77 80  290/  2/  5 1017.6
30 SE NEW RIVER  1000   80 80  230/ 10/ 10 1018.3    4/ 8   3/ 8
5 SE WRIGHTSVILL 1000   76 81  260/  8/  8   N/A
BUOY 41002       0942   82 82  200/ 14/ 16 1020.3    4/ 6   2/ 9
BUOY 41004       1000   80 82  200/  2/  2 1017.2    3/ 6   3/ 6

$$



USA.gov is the U.S. government's official web portal to all federal, state and local government web resources and services.